Regional Weather Roundup
Issued by NWS Raleigh/Durham, NC

Home | Current Version | Previous Version | Text Only | Print | Product List | Glossary On
Versions: 1 2 3 4 5 6 7 8 9 10 11 12 13 14 15 16 17 18 19 20 21 22 23 24 25 26 27
000
ASUS42 KRAH 290410
RWRRAH
NORTH CAROLINA WEATHER ROUNDUP
NATIONAL WEATHER SERVICE RALEIGH NC
1200 AM EDT FRI APR 29 2016

NOTE: "FAIR" INDICATES FEW OR NO CLOUDS BELOW 12,000 FEET WITH NO
SIGNIFICANT WEATHER AND/OR OBSTRUCTIONS TO VISIBILITY.

NCZ001-053-055-056-065-067-290500-
WESTERN NORTH CAROLINA

CITY           SKY/WX    TMP DP  RH WIND       PRES   REMARKS
ASHEVILLE      CLEAR     62  49  62 CALM      29.99S
JEFFERSON      PTCLDY    64  51  61 W9        30.00S
MORGANTON      CLEAR     57  57  99 NW3       29.96S
HICKORY        CLEAR     64  62  93 CALM      29.91S
RUTHERFORDTON  CLEAR     70  51  50 CALM      29.93S
MOUNT AIRY     MOCLDY    67  64  90 E7        29.94S
BOONE          CLEAR     64  50  61 NW9       30.00F
$$

NCZ021-022-025-041-071-084-088-290500-
CENTRAL NORTH CAROLINA

CITY           SKY/WX    TMP DP  RH WIND       PRES   REMARKS
CHARLOTTE      CLEAR     68  58  70 W5        29.90R
GREENSBORO     CLOUDY    66  64  93 NE9       29.91R FOG
WINSTON-SALEM  MOCLDY    66  63  90 NE8       29.93R
RALEIGH-DURHAM CLOUDY    66  64  93 E3        29.92R
FORT BRAGG     CLOUDY    68  66  93 S5        29.87F THUNDER
FAYETTEVILLE   CLOUDY    70  66  87 S3        29.88S
BURLINGTON     CLOUDY    66  65  96 N7        29.91R
LAURINBURG     PTCLDY    73  65  75 SW6       29.88F
$$

NCZ011-015-027-028-043-044-047-080-103-290500-
NORTHEASTERN NORTH CAROLINA

CITY           SKY/WX    TMP DP  RH WIND       PRES   REMARKS
ROCKY MT-WILSO CLOUDY    64  64 100 NW3       29.90S
GREENVILLE     CLOUDY    66  64  94 S3        29.92S
WASHINGTON     LGT RAIN  67  66  96 SE5       29.90F
ELIZABETH CITY CLOUDY    57  57 100 N9        29.93R FOG
MANTEO         NOT AVBL
CAPE HATTERAS  CLOUDY    70  68  93 SW12G18   29.91R
$$

NCZ078-087-090-091-093-098-101-290500-
SOUTHEASTERN NORTH CAROLINA

CITY           SKY/WX    TMP DP  RH WIND       PRES   REMARKS
LUMBERTON      CLEAR     71  65  81 S7        29.88F
GOLDSBORO      CLOUDY    68  68 100 E6        29.87F
KINSTON        LGT RAIN  67  67  99 E5        29.90F
KENANSVILLE    CLOUDY    69  65  88 CALM      29.91F
NEW BERN       CLOUDY    72  64  76 W7        29.93R
CHERRY POINT   CLOUDY    71  65  81 SW12      29.92R
BEAUFORT       MOCLDY    70  68  93 SW14      29.91F
JACKSONVILLE   CLOUDY    70  63  78 SW5       29.90S
WILMINGTON     CLOUDY    71  64  78 SW12      29.91S
$$





USA.gov is the U.S. government's official web portal to all federal, state and local government web resources and services.